• MPC Preparation (Info)

  • MPEC 2023-S165 : 2023 RX36

    The following Minor Planet Electronic Circular may be linked-to from your own Web pages, but must not otherwise be redistributed electronically.

    A form allowing access to any MPEC is at the bottom of this page.


    Read MPEC 2023-S164 Read MPEC 2023-S166


    M.P.E.C. 2023-S165                           Issued 2023 September 22, 21:49 UT
    
         The Minor Planet Electronic Circulars contain information on unusual
             minor planets, routine data on comets and natural satellites,
             and occasional editorial announcements.  They are published
        on behalf of Division F of the International Astronomical Union by the
              Minor Planet Center, Smithsonian Astrophysical Observatory,
                              Cambridge, MA 02138, U.S.A.
    			  
                 Prepared using the Tamkin Foundation Computer Network
    
                                  MPC@CFA.HARVARD.EDU
                URL https://www.minorplanetcenter.net/    ISSN 1523-6714
    
                                    2023 RX36                                
    
    
    Observations:
         K23R36X*1C2023 09 08.37914002 08 49.080+49 42 50.20         22.13GVES165G96
         K23R36X 1C2023 09 08.38418402 08 45.250+49 42 36.50         21.15GVES165G96
         K23R36X 1C2023 09 08.38922102 08 41.430+49 42 22.60         20.99GVES165G96
         K23R36X 1C2023 09 08.39425102 08 37.530+49 42 08.70               VES165G96
         K23R36X KC2023 09 21.80272 00 03 13.08 +32 59 32.2          20.2 GXES165L51
         K23R36X KC2023 09 21.80433 00 03 12.47 +32 59 24.1          20.2 GXES165L51
         K23R36X KC2023 09 21.80593 00 03 11.80 +32 59 15.6          19.9 GXES165L51
         K23R36X KC2023 09 21.82873 00 03 02.44 +32 57 19.3          20.4 GXES165L51
         K23R36X KC2023 09 21.83097 00 03 01.47 +32 57 07.4          21.0 GXES165L51
         K23R36X KC2023 09 21.83322 00 03 00.54 +32 56 56.4          20.3 GXES165L51
         K23R36X KC2023 09 22.18811300 00 46.54 +32 26 04.2          20.6 GXES165858
         K23R36X KC2023 09 22.19519000 00 43.65 +32 25 28.4          19.9 GXES165858
         K23R36X KC2023 09 22.27547100 00 09.04 +32 18 27.5                uES165H21
         K23R36X KC2023 09 22.27830400 00 07.88 +32 18 12.6          20.8 VuES165H21
         K23R36X KC2023 09 22.28109900 00 06.75 +32 17 57.6          20.9 VuES165H21
         K23R36X KC2023 09 22.28380200 00 05.64 +32 17 43.4                uES165H21
         K23R36X KC2023 09 22.82534 23 56 49.98 +31 30 21.1          20.3 GXES165L51
         K23R36X KC2023 09 22.82832 23 56 48.77 +31 30 05.7          20.5 GXES165L51
         K23R36X KC2023 09 22.83132 23 56 47.62 +31 29 50.5          20.3 GXES165L51
         K23R36X KC2023 09 22.84056223 56 45.850+31 28 42.74               VES165J95
         K23R36X KC2023 09 22.84345023 56 44.717+31 28 28.16         20.1 GVES165J95
         K23R36X KC2023 09 22.84865423 56 42.790+31 28 01.20         20.4 GVES165J95
         K23R36X KB2023 09 22.86927123 56 35.34 +31 26 25.9          20.8 GVES165I93
         K23R36X KB2023 09 22.87637323 56 32.68 +31 25 50.1          20.5 GVES165I93
    
    Observer details:
    858 Tebbutt Observatory, Edgewood.  Observer F. B. Zoltowski.  0.51-m f/8.1
        Schmidt-Cassegrain + CCD.
    G96 Mt. Lemmon Survey.  Observer D. C. Fuls.  Measurers E. J. Christensen, D.
        Fay, J. B. Fazekas, D. C. Fuls, A. R. Gibbs, A. D. Grauer, H. Groeller, J.
        K. Hogan, R. A. Kowalski, S. M. Larson, G. J. Leonard, D. Rankin, R. L.
        Seaman, A. Serrano, F. C. Shelly, K. W. Wierzchos.  1.5-m reflector + 10K
        CCD.
    H21 Astronomical Research Observatory, Westfield.  Observer R. Holmes.
        Measurers T. Linder, R. Holmes, L. Horn.  0.76-m f/3.0 astrograph + CCD.
    I93 St Pardon de Conques.  Observer F. Losse.  0.40-m f/3.7 reflector + CMO.
    J95 Great Shefford.  Observer P. Birtwhistle.  0.41-m f/6.3 Schmidt-Cassegrain
        + CCD.
    L51 MARGO, Nauchnyi.  Observer G. Borisov.  0.50-m f/1.9 reflector + CCD.
    
    Orbital elements:
    2023 RX36                                                Earth MOID = 0.0267 AU
    Epoch 2023 Sept. 13.0 TT = JDT 2460200.5                Veres                   
    M 115.01781              (2000.0)            P               Q                  
    n   1.12949879     Peri.  333.67694     -0.82860200     +0.55806652             
    a   0.9131572      Node   240.31587     -0.50418304     -0.77842016             
    e   0.2663353      Incl.    2.93627     -0.24334789     -0.28744358             
    P   0.87           H   24.28          G   0.15           U   8                  
    Residuals in seconds of arc
    230908 G96  0.3-  0.1-    230921 L51  0.0   0.7-    230922 L51  0.3+  0.2-
    230908 G96  0.0   0.0     230921 L51  0.0   0.1-    230922 L51  0.3-  0.4-
    230908 G96  0.3+  0.0     230922 858  0.2+  0.2-    230922 L51  0.1-  0.2-
    230908 G96  0.1-  0.0     230922 858  0.0   0.0     230922 J95  0.2+  0.3+
    230921 L51  0.7-  0.9-    230922 H21  0.3+  0.1-    230922 J95  0.4-  0.3+
    230921 L51  0.1-  0.8-    230922 H21  0.2+  0.0     230922 J95  0.0   0.3-
    230921 L51  0.2-  1.1-    230922 H21  0.4+  0.3-    230922 I93  0.3-  0.4-
    230921 L51  0.6+  0.4-    230922 H21  0.3+  0.1-    230922 I93  0.5+  0.2-
    
    Ephemeris:
    2023 RX36                a,e,i = 0.91, 0.27, 3                   q = 0.6700
    Date    TT    R. A. (2000) Decl.     Delta      r    Elong.  Phase     V
    2023 08 23    05 17 15.4 +51 36 02   0.1051  0.9801    69.8   104.5    23.2
    ...
    2023 09 07    02 25 24.0 +50 42 59   0.09062 1.0394   107.9    67.3    21.5
    ...
    2023 09 15    00 57 10.3 +42 37 14   0.09101 1.0666   129.9    46.3    21.0
    ...
    2023 09 21    00 08 28.6 +34 10 21   0.09698 1.0847   144.6    32.5    20.8
    2023 09 22    00 01 54.6 +32 42 47   0.09850 1.0876   146.6    30.5    20.7
    2023 09 23    23 55 45.2 +31 15 38   0.1002  1.0903   148.5    28.8    20.7
    ...
    2023 09 29    23 26 28.7 +23 01 31   0.1131  1.1058   155.5    22.1    20.8
    ...
    2023 10 07    23 03 09.5 +14 09 12   0.1373  1.1233   152.6    24.2    21.3
    ...
    2023 10 22    22 48 42.4 +04 04 32   0.1979  1.1462   136.1    37.1    22.6
    
    M. P. C. Staff               (C) Copyright 2023 MPC           M.P.E.C. 2023-S165
    


    Read MPEC 2023-S164 Read MPEC 2023-S166


    MPEC number:

    Enter an MPEC number in one of the following forms:

    • 1997-B01 (the full form)
    • J97B01 (the packed version of the full form)
    • B01 (the abbreviated form)